星链-11194 (STARLINK-11194)

导读 | 星芒AI

STARLINK-11194 是 SpaceX Starlink 卫星互联网项目中的一颗低轨卫星,属于第二代星链卫星群。该卫星于2023年发射,旨在为全球用户提供高速、低延迟的宽带互联网服务。它运行在约550公里高度的近地轨道,采用先进推进系统和激光通信技术,以提升网络性能与卫星间通信效率。作为星链计划的重要组成部分,STARLINK-11194 有助于扩大覆盖范围,增强服务稳定性,特别是在偏远和网络基础设施薄弱的地区。

基本信息
目录编号:
60187
目录名称:
STARLINK-11194
国际标识:
2024-124E
轨道中心:
EARTH
卫星名称:
星链-11194 (STARLINK-11194)
卫星全名:
星链-11194 (STARLINK-11194)
卫星状态:
在轨 (已飞行483 天)
发射日期:
2024-07-03 UTC
国别 :
美国 (US)
星等 :
--
轨道信息
数据来源 国际轨道数据
星历时间: 2025-10-28T11:56:37+0800
1天前
查看轨道信息
半长轴: 6737.855km
偏心率: 0.0000981
轨道倾角: 53.160°
近地点辐角 90.231°
升交点赤经 94.254°
平近点角 269.882°
近地点: 359.059km
远地点: 360.381km
周期: 91.737分钟
每日圈数: 15.697132
详细信息
卫星平台:
Starlink v2.0 mini
运营商:
太空探索技术公司
运营商所在国:
美国
制造商(研发单位):
太空探索技术公司
制造商所在国:
美国
使用方式:
暂无
卫星简介
星链(Starlink)计划是由太空探索技术公司(SpaceX)提出的一个巨型低轨卫星互联网星座项目,计划在2019年至2024年间在太空搭建由约1.2万颗卫星组成的“星链”网络,其中1584颗将部署在地球上空550千米处的近地轨道,并从2020年开始工作。该卫星仍在工作。
2D轨道图
3D轨道图
轨道高度分析图
轨道倾角分析图
轨道综合分析图
查看轨道综合分析图